Regional Weather Roundup
Issued by NWS

Home | Current Version | Previous Version | Text Only | Print | Product List | Glossary Off
Versions: 1 2 3 4 5 6 7 8 9 10 11 12 13 14 15 16 17 18 19 20 21 22 23 24 25 26 27 28 29 30 31 32 33 34 35 36 37 38 39 40 41 42 43 44 45 46 47 48 49 50

033
ASUS45 KBOU 032307
RWRCO

WEATHER ROUNDUP FOR COLORADO
NATIONAL WEATHER SERVICE DENVER/BOULDER CO
500 PM MDT TUE MAY 03 2016

NOTE: "FAIR" INDICATES FEW OR NO CLOUDS BELOW 12000 FEET WITH NO
SIGNIFICANT WEATHER AND/OR OBSTRUCTIONS TO VISIBILITY.

COZ001>005-013-030-031-040000-
...NORTHWEST COLORADO...

CITY           SKY/WX    TMP DP  RH WIND       PRES   REMARKS
CRAIG          FAIR      66  28  24 SE6       30.23F
HAYDEN         FAIR      64  27  24 NW8       30.24S
MEEKER         FAIR      68  21  16 VRB5      30.23S
MOUNT WERNER   NOT AVBL
STEAMBOAT SPGS FAIR      63  26  24 S8        30.24S
WALDEN         FAIR      55  19  24 NW12      30.32F
$$

COZ006>008-011-040000-
...WEST CENTRAL VALLEYS...

CITY           SKY/WX    TMP DP  RH WIND       PRES   REMARKS
GRAND JUNCTION FAIR      73  30  20 W7        30.13F
MONTROSE       FAIR      70  22  16 W10G17    30.19F
EAGLE          SUNNY     66  18  15 S8        30.22F
RIFLE          FAIR      72  24  16 VRB5      30.16F
DELTA          NOT AVBL
NUCLA          NOT AVBL
$$

COZ017>023-064>068-040000-
...SOUTHWEST COLORADO...

CITY           SKY/WX    TMP DP  RH WIND       PRES   REMARKS
DURANGO        FAIR      66  30  26 SW9       30.20S
CORTEZ         FAIR      71  31  22 SW16      30.17F
PAGOSA SPRINGS PTSUNNY   65  19  17 W8        30.24S
TELLURIDE      FAIR      57  13  17 SE3       30.33S
WOLF CREEK PAS PTSUNNY   37  14  38 CALM      30.48R
$$

COZ009-010-012-014-032>034-037-058>063-040000-
...CENTRAL COLORADO...

CITY           SKY/WX    TMP DP  RH WIND       PRES   REMARKS
ASPEN          FAIR      63  17  17 W9        30.25S
BUENA VISTA    FAIR      61   9  12 N6        30.27S
COPPER MTN     NOT AVBL
BERTHOUD PASS  FAIR      32  23  69 N10G16    30.49S WCI  24
COTTONWOOD PAS FAIR      55   1  11 S3        30.37S
GUNNISON       FAIR      63  16  16 SW7       30.26S
KREMMLING      FAIR      64  10  12 NW8       30.26F
LEADVILLE      FAIR      52   5  15 N9        30.35S
MONARCH PASS   FAIR      37  12  35 MISG      30.56S
SALIDA         FAIR      65  10  11 NW7       30.32S
SUNLIGHT       FAIR      48  19  32 CALM      30.46S
WILKERSON PASS FAIR      41  16  36 E7        30.46S
$$

COZ069>075-040000-
...SAN LUIS VALLEY/SANGRE DE CRISTO MOUNTAINS...

CITY           SKY/WX    TMP DP  RH WIND       PRES   REMARKS
ALAMOSA        FAIR      61  14  16 VRB3      30.25S
LA VETA PASS   FAIR      45  23  42 N3        30.39S
SAGUACHE       FAIR      63  14  15 E9G17     30.26S
$$

COZ035-036-038>040-040000-
...NORTHERN COLORADO FRONT RANGE...

CITY           SKY/WX    TMP DP  RH WIND       PRES   REMARKS
DENVER INTL AP FAIR      66  30  26 N14G26    30.21S
DMNS CITY PARK   N/A     67  23  19 NE20      30.20S
AURORA         FAIR      64  27  24 NW12G20   30.22S
FRONT RANGE AP MOSUNNY   64  28  25 N9G21     30.22S
ERIE MUNI ARPT FAIR      67  25  20 N9        30.20S
BOULDER MUN AP FAIR      66  30  26 N3        30.20S
CENTENNIAL     FAIR      63  24  22 N10G17    30.22F
BROOMFIELD     MOSUNNY   66  27  22 CALM      30.22S
FORT COLLINS   FAIR      68  32  26 NE16G23   30.19S
LONGMONT       FAIR      71  30  22 E5        30.21S
$$

COZ041-046-047-076>085-087-088-040000-
...PIKES PEAK/PALMER DIVIDE AND SOUTHERN FOOTHILLS...

CITY           SKY/WX    TMP DP  RH WIND       PRES   REMARKS
COLO. SPRINGS  FAIR      64  20  18 NW13G24   30.24S
A. F. ACADEMY  FAIR      61  21  21 N13       30.24S
SCHRIEVER AFB  NOT AVBL
ELLICOTT       FAIR     N/A N/A N/A N17G26    30.22R
FALCON         FAIR      60  24  25 N15       30.27S
FORT CARSON    FAIR      66  23  19 N17G24    30.21S
LIMON          FAIR      64  33  31 N23G29    30.18S
MONUMENT HILL  FAIR      54  27  35 N15G22    30.28S
TRINIDAD       FAIR      64  23  21 N16       30.21S
$$

COZ042>045-048>051-090-091-040000-
...NORTHEAST COLORADO...

CITY           SKY/WX    TMP DP  RH WIND       PRES   REMARKS
GREELEY ARPT   FAIR      68  36  30 NW16G22   30.18S
AKRON          FAIR      68  33  27 N18G29    30.14S
BURLINGTON     FAIR      67  27  22 N17       30.12S
WRAY           NOT AVBL
STERLING       FAIR      72  34  25 N13G18    30.11S
HOLYOKE        NOT AVBL
FORT MORGAN    FAIR      68  31  24 NW10      30.15S
$$

COZ086-089-092>099-040000-
...SOUTHEAST COLORADO...

CITY           SKY/WX    TMP DP  RH WIND       PRES   REMARKS
PUEBLO         FAIR      73  24  16 N14G21    30.16S
LA JUNTA       FAIR      70  29  21 N17G23    30.14S
LAMAR          FAIR      71  28  20 N20G26    30.09S
SPRINGFIELD      N/A     65  28  24 N22G31    30.12S
$$




USA.gov is the U.S. government's official web portal to all federal, state and local government web resources and services.